Location: The Saddle
(36.8333°N, 80.3417°W)
Time: 14:59:59
(UTC-04:00)

Altair - All Passes

Search period start: 23 July 2024 00:00
Search period end: 02 August 2024 00:00
Orbit: 1502 x 1682 km, 47.2° (Epoch: 23 July)

Date Brightness Start Highest point End Pass type
(mag) Time Alt. Az. Time Alt. Az. Time Alt. Az.
23 Jul - 00:40:01 10° WNW 00:49:14 87° SW 00:58:34 10° SE visible
23 Jul - 02:45:47 10° WNW 02:53:03 27° SW 03:00:26 10° S visible
23 Jul - 15:55:52 10° S 16:03:08 25° SE 16:10:13 10° ENE daylight
23 Jul - 17:57:21 10° SW 18:06:55 82° SE 18:16:11 10° ENE daylight
23 Jul - 20:03:11 10° W 20:12:14 50° NNW 20:21:07 10° ENE daylight
23 Jul - 22:09:42 10° WNW 22:18:32 47° N 22:27:18 10° E visible
24 Jul - 00:14:49 10° WNW 00:24:03 88° NE 00:33:21 10° SE visible
24 Jul - 02:20:23 10° WNW 02:27:57 30° SW 02:35:39 10° S visible
24 Jul - 15:31:11 10° S 15:38:02 22° SE 15:44:43 10° E daylight
24 Jul - 17:32:09 10° SW 17:41:43 77° SE 17:51:00 10° ENE daylight
24 Jul - 19:37:48 10° W 19:46:56 52° NNW 19:55:52 10° ENE daylight
24 Jul - 21:44:24 10° WNW 21:53:13 46° N 22:01:57 10° E visible
24 Jul - 23:49:36 10° WNW 23:58:50 83° NNE 00:08:07 10° ESE visible
25 Jul - 01:55:01 10° WNW 02:02:51 33° SW 02:10:50 10° S visible
25 Jul - 15:06:35 10° SSE 15:12:56 20° SE 15:19:08 10° E daylight
25 Jul - 17:06:58 10° SW 17:16:32 72° SE 17:25:47 10° ENE daylight
25 Jul - 19:12:26 10° W 19:21:38 54° NNW 19:30:38 10° ENE daylight
25 Jul - 21:19:05 10° WNW 21:27:54 45° N 21:36:37 10° ENE visible
25 Jul - 23:24:23 10° WNW 23:33:37 78° NNE 23:42:52 10° ESE visible
26 Jul - 01:29:40 10° WNW 01:37:45 36° SW 01:45:57 10° SSE visible
26 Jul - 14:42:05 10° SSE 14:47:50 17° SE 14:53:28 10° E daylight
26 Jul - 16:41:49 10° SW 16:51:21 66° SE 17:00:34 10° ENE daylight
26 Jul - 18:47:03 10° W 18:56:21 56° NNW 19:05:24 10° ENE daylight
26 Jul - 20:53:45 10° WNW 21:02:35 45° N 21:11:16 10° ENE visible
26 Jul - 22:59:10 10° WNW 23:08:25 74° NNE 23:17:37 10° ESE visible
27 Jul - 01:04:20 10° WNW 01:12:38 40° SW 01:21:02 10° SSE visible
27 Jul - 14:17:45 10° SSE 14:22:45 15° ESE 14:27:40 10° E daylight
27 Jul - 16:16:41 10° SW 16:26:11 62° SE 16:35:20 10° ENE daylight
27 Jul - 18:21:41 10° W 18:31:04 58° NNW 18:40:10 10° ENE daylight
27 Jul - 20:28:26 10° WNW 20:37:16 44° N 20:45:57 10° ENE daylight
27 Jul - 22:33:57 10° WNW 22:43:10 70° NNE 22:52:21 10° ESE visible
28 Jul - 00:39:02 10° WNW 00:47:31 44° SW 00:56:05 10° SSE visible
28 Jul - 13:53:37 10° SSE 13:57:40 13° ESE 14:01:38 10° E daylight
28 Jul - 15:51:35 10° SSW 16:01:01 57° SE 16:10:06 10° ENE daylight
28 Jul - 17:56:20 10° WSW 18:05:47 61° NNW 18:14:58 10° ENE daylight
28 Jul - 20:03:04 10° WNW 20:11:56 44° N 20:20:37 10° ENE daylight
28 Jul - 22:08:44 10° WNW 22:17:56 66° NNE 22:27:04 10° ESE visible
29 Jul - 00:13:45 10° WNW 00:22:24 48° SW 00:31:06 10° SSE visible
29 Jul - 13:29:58 10° SE 13:32:34 11° ESE 13:35:11 10° ESE daylight
29 Jul - 15:26:31 10° SSW 15:35:51 52° SE 15:44:51 10° ENE daylight
29 Jul - 17:30:59 10° WSW 17:40:31 64° NNW 17:49:45 10° ENE daylight
29 Jul - 19:37:43 10° WNW 19:46:36 44° N 19:55:17 10° ENE daylight
29 Jul - 21:43:30 10° WNW 21:52:41 63° NNE 22:01:46 10° ESE visible
29 Jul - 23:48:29 10° WNW 23:57:16 52° SW 00:06:06 10° SSE visible
30 Jul - 01:58:35 10° WSW 02:00:23 11° WSW 02:02:13 10° SW visible
30 Jul - 15:01:28 10° SSW 15:10:41 48° SE 15:19:36 10° ENE daylight
30 Jul - 17:05:38 10° WSW 17:15:15 68° NNW 17:24:33 10° ENE daylight
30 Jul - 19:12:20 10° WNW 19:21:16 44° N 19:29:58 10° ENE daylight
30 Jul - 21:18:15 10° WNW 21:27:25 60° NNE 21:36:28 10° ESE visible
30 Jul - 23:23:13 10° WNW 23:32:08 57° SW 23:41:03 10° SSE visible
31 Jul - 01:31:50 10° W 01:35:20 13° WSW 01:38:51 10° SW visible
31 Jul - 14:36:27 10° SSW 14:45:32 44° SE 14:54:19 10° ENE daylight
31 Jul - 16:40:18 10° WSW 16:50:00 71° NNW 16:59:20 10° ENE daylight
31 Jul - 18:46:57 10° WNW 18:55:56 45° N 19:04:41 10° ENE daylight
31 Jul - 20:53:00 10° WNW 21:02:09 57° NNE 21:11:09 10° E visible
31 Jul - 22:57:58 10° WNW 23:06:59 62° SW 23:15:59 10° SE visible
01 Aug - 01:05:44 10° W 01:10:16 15° WSW 01:14:49 10° SSW visible
01 Aug - 14:11:28 10° SSW 14:20:23 40° SE 14:29:01 10° ENE daylight
01 Aug - 16:15:00 10° WSW 16:24:44 75° NNW 16:34:08 10° ENE daylight
01 Aug - 18:21:35 10° WNW 18:30:36 45° N 18:39:23 10° ENE daylight
01 Aug - 20:27:44 10° WNW 20:36:52 55° NNE 20:45:50 10° E daylight
01 Aug - 22:32:43 10° WNW 22:41:50 67° SW 22:50:54 10° SE visible
